Time,TemperatureF,DewpointF,PressureIn,WindDirection,WindDirectionDegrees,WindSpeedMPH,WindSpeedGustMPH,Humidity,HourlyPrecipIn,Conditions,Clouds,dailyrainin,SoftwareType,DateUTC
2013-05-13 00:14:00,42.2,31.0,29.88,NNE,32,0.0,0.0,64,0.00,,,0.00,weatherlink.com 1.10,2013-05-13 04:14:00,
2013-05-13 00:33:00,41.5,31.0,29.89,ESE,107,0.0,2.0,66,0.00,,,0.00,weatherlink.com 1.10,2013-05-13 04:33:00,
2013-05-13 00:45:00,42.1,31.0,29.89,SSW,207,2.0,4.0,64,0.00,,,0.00,weatherlink.com 1.10,2013-05-13 04:45:00,
2013-05-13 01:02:00,42.3,31.0,29.89,South,190,0.0,4.0,64,0.00,,,0.00,weatherlink.com 1.10,2013-05-13 05:02:00,
2013-05-13 01:15:00,42.4,30.0,29.89,South,180,2.0,6.0,63,0.00,,,0.00,weatherlink.com 1.10,2013-05-13 05:15:00,
2013-05-13 01:32:00,42.2,31.0,29.89,SSW,209,3.0,6.0,65,0.00,,,0.00,weatherlink.com 1.10,2013-05-13 05:32:00,
2013-05-13 01:45:00,43.4,30.0,29.89,SSE,167,6.0,11.0,59,0.00,,,0.00,weatherlink.com 1.10,2013-05-13 05:45:00,
2013-05-13 02:02:00,43.6,30.0,29.89,SW,218,0.0,4.0,60,0.00,,,0.00,weatherlink.com 1.10,2013-05-13 06:02:00,
2013-05-13 02:16:00,43.8,30.0,29.90,SSW,192,0.0,8.0,58,0.00,,,0.00,weatherlink.com 1.10,2013-05-13 06:16:00,
2013-05-13 02:32:00,43.2,30.0,29.90,ENE,64,1.0,8.0,60,0.00,,,0.00,weatherlink.com 1.10,2013-05-13 06:32:00,
2013-05-13 02:46:00,43.7,30.0,29.90,ENE,69,3.0,4.0,60,0.00,,,0.00,weatherlink.com 1.10,2013-05-13 06:46:00,
2013-05-13 03:02:00,44.0,32.0,29.90,ENE,65,1.0,4.0,62,0.00,,,0.00,weatherlink.com 1.10,2013-05-13 07:02:00,
2013-05-13 03:16:00,43.9,31.0,29.90,SW,221,2.0,6.0,61,0.00,,,0.00,weatherlink.com 1.10,2013-05-13 07:16:00,
2013-05-13 03:32:00,43.3,31.0,29.90,NW,314,0.0,5.0,62,0.00,,,0.00,weatherlink.com 1.10,2013-05-13 07:32:00,
2013-05-13 03:46:00,43.1,31.0,29.91,SW,215,0.0,3.0,62,0.00,,,0.00,weatherlink.com 1.10,2013-05-13 07:46:00,
2013-05-13 04:02:00,43.1,30.0,29.91,South,178,1.0,5.0,60,0.00,,,0.00,weatherlink.com 1.10,2013-05-13 08:02:00,
2013-05-13 04:16:00,42.9,28.0,29.91,West,277,4.0,7.0,57,0.00,,,0.00,weatherlink.com 1.10,2013-05-13 08:16:00,
2013-05-13 04:32:00,42.6,29.0,29.92,SW,230,0.0,6.0,59,0.00,,,0.00,weatherlink.com 1.10,2013-05-13 08:32:00,
2013-05-13 04:47:00,42.2,29.0,29.92,NE,52,0.0,7.0,60,0.00,,,0.00,weatherlink.com 1.10,2013-05-13 08:47:00,
2013-05-13 05:02:00,41.8,29.0,29.92,NNE,19,1.0,7.0,62,0.00,,,0.00,weatherlink.com 1.10,2013-05-13 09:02:00,
2013-05-13 05:17:00,41.2,30.0,29.93,East,82,0.0,7.0,65,0.00,,,0.00,weatherlink.com 1.10,2013-05-13 09:17:00,
2013-05-13 05:32:00,41.2,30.0,29.93,WSW,243,0.0,10.0,65,0.00,,,0.00,weatherlink.com 1.10,2013-05-13 09:32:00,
2013-05-13 05:47:00,41.3,30.0,29.94,WSW,250,5.0,7.0,64,0.00,,,0.00,weatherlink.com 1.10,2013-05-13 09:47:00,
2013-05-13 06:02:00,41.5,29.0,29.94,SW,223,2.0,8.0,62,0.00,,,0.00,weatherlink.com 1.10,2013-05-13 10:02:00,
2013-05-13 06:17:00,41.5,28.0,29.95,SSW,202,5.0,9.0,60,0.00,,,0.00,weatherlink.com 1.10,2013-05-13 10:17:00,
2013-05-13 06:33:00,41.4,29.0,29.96,North,349,1.0,5.0,62,0.00,,,0.00,weatherlink.com 1.10,2013-05-13 10:33:00,
2013-05-13 06:47:00,41.5,28.0,29.95,SSW,202,2.0,5.0,60,0.00,,,0.00,weatherlink.com 1.10,2013-05-13 10:47:00,
2013-05-13 07:02:00,41.7,28.0,29.96,SSW,201,0.0,5.0,59,0.00,,,0.00,weatherlink.com 1.10,2013-05-13 11:02:00,
2013-05-13 07:18:00,41.9,28.0,29.96,SW,220,2.0,9.0,58,0.00,,,0.00,weatherlink.com 1.10,2013-05-13 11:18:00,
2013-05-13 07:33:00,42.3,29.0,29.97,SSW,200,0.0,3.0,60,0.00,,,0.00,weatherlink.com 1.10,2013-05-13 11:33:00,
2013-05-13 07:48:00,42.4,28.0,29.98,SSW,199,0.0,5.0,56,0.00,,,0.00,weatherlink.com 1.10,2013-05-13 11:48:00,
2013-05-13 08:03:00,42.6,29.0,29.99,South,171,0.0,5.0,59,0.00,,,0.00,weatherlink.com 1.10,2013-05-13 12:03:00,
2013-05-13 08:18:00,44.2,28.0,29.99,SSW,203,2.0,8.0,54,0.00,,,0.00,weatherlink.com 1.10,2013-05-13 12:18:00,
2013-05-13 08:33:00,44.3,28.0,30.00,NW,317,0.0,8.0,54,0.00,,,0.00,weatherlink.com 1.10,2013-05-13 12:33:00,
2013-05-13 08:48:00,44.2,28.0,29.99,SSW,212,4.0,11.0,53,0.00,,,0.00,weatherlink.com 1.10,2013-05-13 12:48:00,
2013-05-13 09:03:00,45.5,30.0,30.00,SSE,161,3.0,7.0,55,0.00,,,0.00,weatherlink.com 1.10,2013-05-13 13:03:00,
2013-05-13 09:18:00,45.6,28.0,30.00,SW,232,1.0,11.0,50,0.00,,,0.00,weatherlink.com 1.10,2013-05-13 13:18:00,
2013-05-13 09:33:00,45.1,28.0,30.00,SE,144,2.0,9.0,51,0.00,,,0.00,weatherlink.com 1.10,2013-05-13 13:33:00,
2013-05-13 09:49:00,44.8,29.0,30.01,South,185,0.0,4.0,55,0.00,,,0.00,weatherlink.com 1.10,2013-05-13 13:49:00,
2013-05-13 10:04:00,44.8,29.0,30.01,SSW,211,5.0,11.0,55,0.00,,,0.00,weatherlink.com 1.10,2013-05-13 14:04:00,
2013-05-13 10:19:00,45.4,28.0,30.01,SSW,202,3.0,12.0,50,0.00,,,0.00,weatherlink.com 1.10,2013-05-13 14:19:00,
2013-05-13 10:34:00,46.9,29.0,30.02,SSW,202,1.0,7.0,51,0.00,,,0.00,weatherlink.com 1.10,2013-05-13 14:34:00,
2013-05-13 10:49:00,46.8,28.0,30.02,SSW,204,3.0,6.0,49,0.00,,,0.00,weatherlink.com 1.10,2013-05-13 14:49:00,
2013-05-13 11:04:00,47.2,28.0,30.02,NE,55,4.0,9.0,47,0.00,,,0.00,weatherlink.com 1.10,2013-05-13 15:04:00,
2013-05-13 11:19:00,47.6,28.0,30.03,South,190,4.0,8.0,47,0.00,,,0.00,weatherlink.com 1.10,2013-05-13 15:19:00,
2013-05-13 11:34:00,47.8,31.0,30.02,South,190,3.0,11.0,52,0.00,,,0.00,weatherlink.com 1.10,2013-05-13 15:34:00,
2013-05-13 11:49:00,48.2,31.0,30.03,NW,306,3.0,10.0,51,0.00,,,0.00,weatherlink.com 1.10,2013-05-13 15:49:00,
2013-05-13 12:05:00,48.1,30.0,30.03,SSW,209,3.0,7.0,49,0.00,,,0.00,weatherlink.com 1.10,2013-05-13 16:05:00,
2013-05-13 12:22:00,48.3,31.0,30.03,South,191,1.0,5.0,51,0.00,,,0.00,weatherlink.com 1.10,2013-05-13 16:22:00,
2013-05-13 12:35:00,48.2,28.0,30.03,NE,43,0.0,5.0,46,0.00,,,0.00,weatherlink.com 1.10,2013-05-13 16:35:00,
2013-05-13 12:52:00,48.3,29.0,30.03,SW,215,0.0,8.0,48,0.00,,,0.00,weatherlink.com 1.10,2013-05-13 16:52:00,
2013-05-13 13:05:00,47.0,28.0,30.04,SW,233,2.0,9.0,47,0.00,,,0.00,weatherlink.com 1.10,2013-05-13 17:05:00,
2013-05-13 13:22:00,47.1,31.0,30.04,SSW,210,2.0,5.0,53,0.00,,,0.00,weatherlink.com 1.10,2013-05-13 17:22:00,
2013-05-13 13:35:00,46.9,30.0,30.04,West,274,0.0,7.0,52,0.00,,,0.00,weatherlink.com 1.10,2013-05-13 17:35:00,
2013-05-13 13:52:00,48.1,31.0,30.04,East,94,6.0,7.0,51,0.00,,,0.00,weatherlink.com 1.10,2013-05-13 17:52:00,
2013-05-13 14:05:00,49.1,30.0,30.04,ENE,71,0.0,8.0,49,0.00,,,0.00,weatherlink.com 1.10,2013-05-13 18:05:00,
2013-05-13 14:22:00,50.8,31.0,30.04,North,360,0.0,9.0,46,0.00,,,0.00,weatherlink.com 1.10,2013-05-13 18:22:00,
2013-05-13 14:36:00,49.3,30.0,30.04,SSW,212,4.0,9.0,48,0.00,,,0.00,weatherlink.com 1.10,2013-05-13 18:36:00,
2013-05-13 14:52:00,49.1,29.0,30.03,SSW,193,6.0,13.0,46,0.00,,,0.00,weatherlink.com 1.10,2013-05-13 18:52:00,
2013-05-13 15:06:00,50.8,32.0,30.03,SW,218,0.0,7.0,49,0.00,,,0.00,weatherlink.com 1.10,2013-05-13 19:06:00,
2013-05-13 15:22:00,50.0,31.0,30.02,South,184,2.0,8.0,48,0.00,,,0.00,weatherlink.com 1.10,2013-05-13 19:22:00,
2013-05-13 15:36:00,50.5,29.0,30.02,North,5,1.0,7.0,44,0.00,,,0.00,weatherlink.com 1.10,2013-05-13 19:36:00,
2013-05-13 15:52:00,51.4,29.0,30.02,NE,55,2.0,7.0,42,0.00,,,0.00,weatherlink.com 1.10,2013-05-13 19:52:00,
2013-05-13 16:06:00,49.5,31.0,30.02,SE,135,1.0,4.0,49,0.00,,,0.00,weatherlink.com 1.10,2013-05-13 20:06:00,
2013-05-13 16:22:00,48.4,30.0,30.03,NW,313,3.0,4.0,49,0.00,,,0.00,weatherlink.com 1.10,2013-05-13 20:22:00,
2013-05-13 16:36:00,49.6,30.0,30.02,SSW,197,0.0,5.0,48,0.00,,,0.00,weatherlink.com 1.10,2013-05-13 20:36:00,
2013-05-13 16:52:00,49.0,30.0,30.02,SSW,209,3.0,7.0,49,0.00,,,0.00,weatherlink.com 1.10,2013-05-13 20:52:00,
2013-05-13 17:06:00,48.1,29.0,30.02,SW,232,0.0,6.0,48,0.00,,,0.00,weatherlink.com 1.10,2013-05-13 21:06:00,
2013-05-13 17:22:00,47.5,30.0,30.03,NNW,338,1.0,7.0,50,0.00,,,0.00,weatherlink.com 1.10,2013-05-13 21:22:00,
2013-05-13 17:37:00,47.2,29.0,30.03,SSW,199,5.0,6.0,50,0.00,,,0.00,weatherlink.com 1.10,2013-05-13 21:37:00,
2013-05-13 17:52:00,48.0,31.0,30.03,West,261,0.0,11.0,52,0.00,,,0.00,weatherlink.com 1.10,2013-05-13 21:52:00,
2013-05-13 18:07:00,48.2,31.0,30.02,SW,225,2.0,9.0,51,0.00,,,0.00,weatherlink.com 1.10,2013-05-13 22:07:00,
2013-05-13 18:22:00,47.5,31.0,30.03,ENE,57,0.0,6.0,53,0.00,,,0.00,weatherlink.com 1.10,2013-05-13 22:22:00,
2013-05-13 18:37:00,47.4,31.0,30.03,ENE,62,0.0,5.0,53,0.00,,,0.00,weatherlink.com 1.10,2013-05-13 22:37:00,
2013-05-13 18:52:00,47.2,32.0,30.04,South,189,1.0,3.0,56,0.00,,,0.00,weatherlink.com 1.10,2013-05-13 22:52:00,
2013-05-13 19:07:00,46.7,31.0,30.04,SE,146,1.0,4.0,55,0.00,,,0.00,weatherlink.com 1.10,2013-05-13 23:07:00,
2013-05-13 19:22:00,46.1,31.0,30.04,NE,55,0.0,5.0,56,0.00,,,0.00,weatherlink.com 1.10,2013-05-13 23:22:00,
2013-05-13 19:37:00,45.6,32.0,30.05,South,179,1.0,7.0,59,0.00,,,0.00,weatherlink.com 1.10,2013-05-13 23:37:00,
2013-05-13 19:53:00,44.8,32.0,30.05,SSW,206,1.0,5.0,62,0.00,,,0.00,weatherlink.com 1.10,2013-05-13 23:53:00,
2013-05-13 20:08:00,43.7,32.0,30.06,SW,215,1.0,5.0,64,0.00,,,0.00,weatherlink.com 1.10,2013-05-14 00:08:00,
2013-05-13 20:23:00,43.0,32.0,30.06,SSW,192,0.0,3.0,65,0.00,,,0.00,weatherlink.com 1.10,2013-05-14 00:23:00,
2013-05-13 20:38:00,42.0,32.0,30.07,NE,42,0.0,2.0,68,0.00,,,0.00,weatherlink.com 1.10,2013-05-14 00:38:00,
2013-05-13 20:53:00,40.9,32.0,30.07,NE,39,0.0,1.0,71,0.00,,,0.00,weatherlink.com 1.10,2013-05-14 00:53:00,
2013-05-13 21:08:00,40.1,32.0,30.08,NE,39,0.0,2.0,73,0.00,,,0.00,weatherlink.com 1.10,2013-05-14 01:08:00,
2013-05-13 21:23:00,39.5,32.0,30.08,NE,39,0.0,1.0,75,0.00,,,0.00,weatherlink.com 1.10,2013-05-14 01:23:00,
2013-05-13 21:38:00,39.3,32.0,30.09,NE,39,0.0,2.0,75,0.00,,,0.00,weatherlink.com 1.10,2013-05-14 01:38:00,
2013-05-13 21:54:00,39.1,32.0,30.10,NNE,28,1.0,3.0,76,0.00,,,0.00,weatherlink.com 1.10,2013-05-14 01:54:00,
2013-05-13 22:08:00,38.9,32.0,30.10,NNE,26,0.0,2.0,76,0.00,,,0.00,weatherlink.com 1.10,2013-05-14 02:08:00,
2013-05-13 22:24:00,38.9,32.0,30.10,NNW,333,0.0,4.0,76,0.00,,,0.00,weatherlink.com 1.10,2013-05-14 02:24:00,
2013-05-13 22:39:00,39.0,32.0,30.10,NE,44,0.0,4.0,75,0.00,,,0.00,weatherlink.com 1.10,2013-05-14 02:39:00,
2013-05-13 22:54:00,39.1,32.0,30.10,NNW,343,1.0,3.0,75,0.00,,,0.00,weatherlink.com 1.10,2013-05-14 02:54:00,
2013-05-13 23:09:00,39.0,32.0,30.10,NNE,24,0.0,4.0,75,0.00,,,0.00,weatherlink.com 1.10,2013-05-14 03:09:00,
2013-05-13 23:24:00,38.2,32.0,30.11,ENE,59,1.0,2.0,78,0.00,,,0.00,weatherlink.com 1.10,2013-05-14 03:24:00,
2013-05-13 23:39:00,38.1,32.0,30.11,NE,37,0.0,5.0,77,0.00,,,0.00,weatherlink.com 1.10,2013-05-14 03:39:00,
2013-05-13 23:54:00,38.0,31.0,30.11,NNE,24,0.0,5.0,77,0.00,,,0.00,weatherlink.com 1.10,2013-05-14 03:54:00,